x

Kaunakakai, Molokai Airport (91186) Weather Station

8:54am - Fri 18th Apr 2014 All times are HST. -10 hours from GMT.

  • Wind
    7mph
  • Air Temp 75°f
  • Sea Pressure 1020.7mb
  • Kaunakakai, Molokai Airport
  • Kaunakakai, Molokai Airport

More Historic Weather Station data

Upgrade to MSW Pro to gain access to the past 30 days of data for over 8000 Wavebouys and Weather Stations around the globe.

Join Pro

Comparision Forecast

View Surf forecast
   
Fri 04/18 8:54am 7
mph
1020.7mb 75f
7:54am 13 20 mph 1020mb 73f
7:02am 8
mph
1019.6mb 73f
6:54am 10 18 mph 1019.6mb 73f
5:58am 10
mph
1019.3mb 73f
5:54am 9
mph
1019.3mb 73f
4:54am 9 17 mph 1019mb 73f
3:54am 10 17 mph 1018.6mb 72f
3:50am 8 17 mph 1018.6mb 73f
3:28am 10 18 mph 1019mb 72f
2:54am 5 18 mph 1018.6mb 72f
1:54am 8 20 mph 1019mb 72f
12:54am 10 17 mph 1020mb 72f
Thu 04/17 11:54pm 8
mph
1020.3mb 73f
10:54pm 13 23 mph 1020.3mb 72f
9:54pm 10 18 mph 1020.3mb 73f
8:54pm 9
mph
1020mb 73f
7:54pm 9 17 mph 1019.6mb 73f
6:54pm 10 18 mph 1019mb 73f
5:54pm 14 21 mph 1018mb 75f
4:54pm 17 27 mph 1017.6mb 77f
3:54pm 15 30 mph 1017.3mb 79f
2:54pm 17 25 mph 1016.9mb 81f
1:54pm 13 29 mph 1018mb 81f
12:54pm 16 28 mph 1018.6mb 81f
11:54am 15 25 mph 1019.3mb 81f
10:54am 13 28 mph 1020mb 79f
9:54am 17 29 mph 1020.3mb 77f
8:54am 13 20 mph 1020.7mb 75f
7:54am 15 22 mph 1020.3mb 75f
6:54am 10 18 mph 1020mb 72f
5:54am 13 20 mph 1019.3mb 72f
4:54am 9 22 mph 1019mb 72f
3:54am 13
mph
1018.6mb 72f
2:54am 8 17 mph 1018.6mb 72f
1:54am 13 17 mph 1019.6mb 72f
12:54am 12 20 mph 1020.3mb 72f
Wed 04/16 11:54pm 14 23 mph 1020.7mb 72f
10:54pm 12 20 mph 1021mb 72f
9:54pm 13 21 mph 1021mb 73f
9:30pm 15 27 mph 1020.7mb 72f
9:16pm 13 21 mph 1020.7mb 72f
9:09pm 10 22 mph 1020.7mb 72f
8:54pm 10 17 mph 1020.7mb 72f
8:21pm 5
mph
1020.3mb 72f
7:54pm 6
mph
1019.6mb 72f
6:54pm 10 16 mph 1018.6mb 72f
5:54pm 12 25 mph 1018mb 73f
4:54pm 13 27 mph 1018mb 75f
3:54pm 15 25 mph 1017.6mb 77f
2:54pm 14 25 mph 1018mb 79f
1:54pm 13 24 mph 1018.3mb 79f
12:54pm 14 27 mph 1019mb 79f
11:54am 17 29 mph 1019.6mb 79f
10:54am 15 25 mph 1020mb 75f
9:54am 18 29 mph 1019.6mb 75f
8:54am 16 29 mph 1020mb 73f
7:54am 16 28 mph 1019.3mb 73f
7:12am 13 32 mph 1019.3mb 72f
6:54am 16 28 mph 1019mb 72f
5:54am 9 20 mph 1018.6mb 70f
4:54am 13 21 mph 1018mb 70f
3:54am 9 22 mph 1018mb 70f
2:54am 7 17 mph 1018.6mb 70f
1:54am 17 25 mph 1018.3mb 70f
1:10am 12 21 mph 1019.6mb 70f
12:54am 12 20 mph 1020mb 70f
12:45am 7
mph
1020mb 70f
Tue 04/15 11:54pm 10 24 mph 1020.3mb 72f
10:54pm 13 23 mph 1020.3mb 72f
9:54pm 17 25 mph 1020mb 70f
9:02pm 16 24 mph 1019.3mb 70f
8:54pm 15 23 mph 1019.6mb 70f
8:20pm 12 24 mph 1019.3mb 70f
8:07pm 13 20 mph 1019.3mb 70f
7:54pm 14 23 mph 1019mb 70f
7:01pm 15 22 mph 1018.3mb 70f
6:54pm 15 24 mph 1018.3mb 70f
6:04pm 9 29 mph 1018mb 68f
5:54pm 20 29 mph 1018mb 72f
5:11pm 14 25 mph 1017.3mb 72f
4:56pm 8 20 mph 1017.6mb 70f
4:54pm 9 25 mph 1017.6mb 70f
4:51pm 13 25 mph 1017.6mb 70f
3:54pm 12 25 mph 1017.6mb 72f
3:01pm 13 27 mph 1017.6mb 75f
2:54pm 16 21 mph 1017.6mb 75f
1:54pm 17 29 mph 1018mb 77f
12:54pm 14 23 mph 1019mb 77f
12:36pm 16 25 mph 1019mb 75f
12:01pm 7 24 mph 1019.6mb 75f
11:54am 15 27 mph 1019.6mb 75f
10:54am 15 23 mph 1020mb 73f
10:03am 14 23 mph 1020.7mb 70f
9:56am 13 24 mph 1020.3mb 70f
9:54am 14 28 mph 1020.3mb 70f
9:45am 18 28 mph 1020.3mb 72f
9:21am 14 29 mph 1020.3mb 73f
8:54am 12 30 mph 1020.3mb 72f
7:54am 17 25 mph 1020mb 72f
6:54am 12 29 mph 1019.3mb 72f
5:54am 12 29 mph 1019mb 70f
5:22am 14 29 mph 1018.6mb 70f
4:54am 15 30 mph 1018.6mb 70f
3:54am 13 22 mph 1018.6mb 70f
3:22am 13 23 mph 1018.3mb 70f
2:54am 6 27 mph 1018.6mb 66f
1:54am 14 23 mph 1019.3mb 70f
12:54am 16 29 mph 1019.6mb 70f
Mon 04/14 11:54pm 18 29 mph 1020.3mb 72f
10:54pm 16 24 mph 1021.3mb 72f
10:14pm 20 31 mph 1021mb 72f
9:54pm 14 22 mph 1021.3mb 72f
9:34pm 14 31 mph 1021.3mb 72f
9:01pm 18 28 mph 1021mb 72f
8:54pm 14 24 mph 1021mb 72f
8:18pm 13 27 mph 1021mb 72f
8:08pm 15 25 mph 1021mb 72f
7:54pm 12 22 mph 1021mb 72f
7:51pm 10 21 mph 1021mb 72f